Terug naar catalogus

TIANLU-1

ActiefWeerSSO
NORAD 62725·PAYLOAD·🇨🇳 China
Deze satellietnaam is nog niet bevestigd door officiële bronnen.

Gelanceerd Jan 17, 2025 vanaf Jiuquan Satellite Launch Center

Loading…

Volgende Passages (komende 24 uur)

TLE

VersSource: Space-Track

Epoch: Sep 14, 2026, 22:14 UTC

1 62725U 25012A   26257.92686318  .00006010  00000-0  30202-3 0  9994
2 62725  97.4147 328.5901 0004205 335.4415  24.6618 15.17619930 91807

Volg TIANLU-1 in realtime met AllMySat

Download on the App Store